Rbgn^[z[y[W
メイン
   新天体発見情報
     Comet C/2024 XK14 (Bok)
投稿するにはまず登録を

スレッド表示 | 新しいものから 前のトピック | 次のトピック | 下へ
投稿者 スレッド
佐藤裕久
投稿日時: 2025-7-16 23:19
モデレータ
登録日: 2005-6-12
居住地: 日本
投稿: 2666
オンライン
Comet C/2024 XK14 (Bok)

2024年12月3日、Kitt Peakにある2.25-m Bok 反射望遠鏡で発見された小惑星状天体が、他の観測場所で
彗星状の外観があることがわかった。この天体は、MPEC 2024-X264 (MPS 2292994でも発表)で発表され
る際に、小惑星番号2024 XK14が与えられた。
これが初めて発表された時点(2024年12月9日)に、ハワイのHaleakalaにあるPan-STARRS1 1.8-m Ritchey-
Chretien反射望遠鏡による発見前の観測結果が、既に2024年11月28日に報告されていた(光度は22.4〜
22.5等)。
M. Mattiazzo (Swan Hill, オーストラリア)の報告によると、2025年5月31.41日UT、チリのRio Hurtado
渓谷にある、0.25-m f/3.8 ASAN 反射望遠鏡で、このケンタウルス型天体を観測した。8枚の60-秒露光の
スタックCMOS画像では、幅10"の可能性があるコマ(全V光度17.8等)が見え、p.a. 145°に25"-の尾の可能
性がある。
佐藤英貴氏(東京都文京区)は、6月9.43日、チリのRio Hurtadoにある0.25-m f/3.8 アストログラフの遠
隔操作で得た8枚の60-秒露出スタックCMOS画像では、強く集光した12"のコマが見えるが尾はなかった。
7".0の円形範囲で測定した光度は17.9等であった。

彗星機能の報告は次のとおり、

OC   Date        Reporter            Coma    Tail   PA   Comet     Date
                                                        (T/P)   Reported
X07  2025-05-31  M. Mattiazzo       10"       25"  145    P   2025-06-01.99
X07  2025-06-09  H. Sato            12"                   T   2025-06-09.58
Q59  2025-06-30  A. Hale             3".5      6"  230    T   2025-06-30.91
X07  2025-07-07  T. Prystavski      12"       48"  222    T   2025-07-07.85
X07  2025-07-07  M. Mattiazzo       10"       20"  210    T   2025-07-08.05

発見位置は次のとおり、

     2024 UT             R.A. (2000) Decl.       Mag.
     Dec.  3.24864    3 20 00.10   +17 11 15.4   22.6
           3.25426    3 19 59.30   +17 11 04.6   22.5
           3.25985    3 19 58.51   +17 10 53.9   22.4
           3.26546    3 19 57.69   +17 10 43.3   22.2

MPCの楕円軌道要素、位置推算表は次のとおり、

Orbital elements:
    C/2024 XK14 (Bok)                                                           
Epoch 2025 May 5.0 TT = JDT 2460800.5                                           
T 2025 May 20.90936 TT                                  Pike                    
q   2.0595962            (2000.0)            P               Q                  
n   0.01406212     Peri.  243.48562     +0.48198984     -0.33362250             
a  16.9994741      Node   239.08914     +0.54872602     -0.60593731             
e   0.8788435      Incl.  109.21427     -0.68307068     -0.72217450             
P  70.1                                                                         
From 48 observations 2024 Nov. 28-2025 July 9, mean residual 0".6.              
                                                                                
Ephemeris:
Date    TT    R. A. (2000) Decl.     Delta      r    Elong.  Phase   m1
2025 06 10    03 59 13.0 -30 13 33   2.4604  2.0719    56.0    24.0  20.6
...
2025 06 25    04 27 32.8 -37 02 35   2.3035  2.0968    65.5    26.2  20.5
...
2025 07 03    04 45 31.0 -41 19 58   2.2295  2.1154    70.3    26.9  20.5
...
2025 07 09    05 00 47.6 -44 49 31   2.1821  2.1317    73.6    27.2  20.5
2025 07 10    05 03 31.1 -45 25 39   2.1750  2.1346    74.2    27.3  20.5
2025 07 11    05 06 18.2 -46 02 06   2.1682  2.1375    74.7    27.3  20.5
...
2025 07 17    05 24 21.0 -49 46 21   2.1333  2.1563    77.6    27.4  20.5
...
2025 07 25    05 52 50.6 -54 54 10   2.1048  2.1841    80.7    27.3  20.5
...
2025 08 09    07 06 56.2 -64 04 23   2.1164  2.2445    83.7    26.7  20.6

(MPEC 2025-N87、CBET 5581)

スレッド表示 | 新しいものから 前のトピック | 次のトピック | トップ

投稿するにはまず登録を
 
© 1999 Tsutomu Seki.